World > North America > United States > Michigan > Sears

Hourly Sears, MI Regional Weather

Feedback E-mail the Weather

Quick WX

Sears, MI Weather Maps

°F °C°F °C
Sears Weather Map
UTC Time: 8/12/2022, 08:50
Your Time:

Sears, MI Regional Weather

Expires:202208120900;;956702
ASUS43 KDTX 120810
RWRMI 
MICHIGAN HOURLY REGIONAL WEATHER ROUNDUP
NATIONAL WEATHER SERVICE DETROIT/PONTIAC MI
400 AM EDT FRI AUG 12 2022

NOTE: "FAIR" INDICATES FEW OR NO CLOUDS BELOW 12,000 FEET WITH NO
SIGNIFICANT WEATHER AND/OR OBSTRUCTION TO VISIBILITY.


MIZ016>042-120900-
NORTHERN LOWER MICHIGAN
  
CITY           SKY/WX    TMP DP  RH WIND       PRES   REMARKS
ALPENA         CLEAR     52  48  86 W3        30.22R                  
BEAVER ISLAND  CLEAR     47  46  99 CALM      30.24S                  
BELLAIRE       CLEAR     46  45  97 CALM      30.24S                  
CADILLAC       CLEAR     42  41  95 N3        30.23F                  
CHARLEVOIX     CLEAR     53  50  90 CALM      30.23S                  
FRANKFORT      CLEAR     49  46  92 CALM      30.24S                  
GAYLORD        CLEAR     49  42  77 CALM      30.24F                  
GRAYLING       CLEAR     41  40  98 CALM      30.23F                  
HARBOR SPRINGS CLEAR     50  47  90 CALM      30.23F                  
HOUGHTON LAKE  CLEAR     46  42  86 CALM      30.24S                  
MANISTEE       CLEAR     47  46  97 CALM      30.24S                  
OSCODA         CLEAR     53  47  81 NW5       30.20S                  
PELLSTON       CLEAR     44  43  96 CALM      30.24S FOG              
TRAVERSE CITY  CLEAR     50  47  89 CALM      30.22S                  
$$

SKY/WX - Weather  TMP - Temperature  DP - Dew Point  RH - Humidity
WIND - Wind Direction/Speed PRES - Barometric Pressure VSB - Visibility
WCI - Wind Chill Index E13G22 Wind - East Wind 13 mph/Gusts of 22 mph

Trending Headlines

Sears Radar Loop



Sears Quick Facts


National Two Day Weather Forecast


E-mail the Sears Weather Forecast

Voice your opinion or tell us about page issues...